Weather History for Liberal, KS

Change the Weather History Date:

Thursday, July 25, 2013

  Actual Average Record
Temperature  
Mean Temperature 78 °F -  
Max Temperature 87 °F 95 °F 109 °F (1940)
Min Temperature 68 °F 66 °F 57 °F (2004)
Cooling Degree Days 12    
Growing Degree Days 28 (Base 50)    
Moisture  
Dew Point 62 °F    
Average Humidity 62    
Maximum Humidity 78    
Minimum Humidity 43    
Precipitation  
Precipitation 0.25 in - - ()
Sea Level Pressure  
Sea Level Pressure 30.08 in    
Wind  
Wind Speed 15 mph (SSW)    
Max Wind Speed 30 mph    
Max Gust Speed 34 mph    
Visibility 10 miles    
Events Thunderstorm    
Averages and records for this station are not official NWS values.
T = Trace of Precipitation, MM = Missing Value Source: NWS Daily Summary

Daily Weather History Graph

Daily Weather History Graph

Search for Another Location

Airport:

Trip Planner

Search our weather history database for the weather conditions in past years. The results will help you decide how hot, cold, wet, or windy it might be!

Date:

Astronomy

Jul. 25, 2013 Rise Set
Actual Time 6:43 AM CDT 8:56 PM CDT
Civil Twilight 6:14 AM CDT 9:25 PM CDT
Nautical Twilight 5:38 AM CDT 10:01 PM CDT
Astronomical Twilight 4:59 AM CDT 10:40 PM CDT
Moon 10:45 PM CDT (7/25) 10:08 AM CDT (7/25)
Length of Visible Light 15h 11m
Length of Day
14h 13m
Waning Gibbous, 88% of the Moon is Illuminated
Jul 25
Waning Gibbous
Jul 29
Last Quarter
Aug 6
New
Aug 14
First Quarter
Aug 20
Full

Hourly Weather History & Observations

Time (CDT) Temp. Heat Index Dew Point Humidity Pressure Visibility Wind Dir Wind Speed Gust Speed Precip Events Conditions
12:15 AM 78.8 °F - 60.8 °F 54% 30.14 in 10.0 mi SE 8.1 mph - N/A   Scattered Clouds
12:35 AM 78.8 °F - 62.6 °F 57% 30.16 in 10.0 mi SE 9.2 mph - N/A   Mostly Cloudy
12:55 AM 78.8 °F - 62.6 °F 57% 30.19 in 10.0 mi SW 16.1 mph - N/A   Mostly Cloudy
1:15 AM 78.8 °F - 60.8 °F 54% 30.19 in 10.0 mi WSW 23.0 mph 29.9 mph N/A   Mostly Cloudy
1:35 AM 73.4 °F - 57.2 °F 57% 30.20 in 10.0 mi West 27.6 mph 32.2 mph N/A   Mostly Cloudy
1:55 AM 71.6 °F - 57.2 °F 60% 30.18 in 10.0 mi West 19.6 mph - N/A   Mostly Cloudy
2:15 AM 71.6 °F - 59.0 °F 64% 30.19 in 10.0 mi WSW 20.7 mph 25.3 mph N/A   Partly Cloudy
2:35 AM 71.6 °F - 59.0 °F 64% 30.18 in 10.0 mi West 17.3 mph 21.9 mph N/A Thunderstorm Mostly Cloudy
2:55 AM 69.8 °F - 57.2 °F 64% 30.16 in 10.0 mi WNW 19.6 mph - N/A   Mostly Cloudy
3:15 AM 68.0 °F - 59.0 °F 73% 30.14 in 10.0 mi NW 15.0 mph - 0.02 in   Overcast
3:35 AM 68.0 °F - 59.0 °F 73% 30.13 in 10.0 mi WNW 16.1 mph - 0.03 in   Overcast
3:55 AM 69.8 °F - 59.0 °F 68% 30.11 in 10.0 mi West 11.5 mph - 0.03 in   Scattered Clouds
4:15 AM 69.8 °F - 59.0 °F 68% 30.11 in 10.0 mi West 12.7 mph - N/A   Mostly Cloudy
4:35 AM 69.8 °F - 59.0 °F 68% 30.11 in 10.0 mi WSW 9.2 mph - N/A   Partly Cloudy
4:55 AM 69.8 °F - 60.8 °F 73% 30.11 in 10.0 mi SW 4.6 mph - N/A   Scattered Clouds
5:15 AM 69.8 °F - 60.8 °F 73% 30.12 in 10.0 mi SW 9.2 mph - N/A   Mostly Cloudy
5:35 AM 69.8 °F - 60.8 °F 73% 30.11 in 10.0 mi South 15.0 mph - N/A   Scattered Clouds
5:55 AM 69.8 °F - 60.8 °F 73% 30.10 in 10.0 mi SSW 11.5 mph - N/A   Clear
6:15 AM 69.8 °F - 60.8 °F 73% 30.09 in 10.0 mi South 10.4 mph - N/A   Clear
6:35 AM 69.8 °F - 60.8 °F 73% 30.09 in 10.0 mi South 11.5 mph - N/A   Partly Cloudy
6:55 AM 69.8 °F - 60.8 °F 73% 30.09 in 10.0 mi South 12.7 mph - N/A   Partly Cloudy
7:15 AM 69.8 °F - 60.8 °F 73% 30.08 in 10.0 mi SSE 11.5 mph - N/A   Scattered Clouds
7:35 AM 69.8 °F - 62.6 °F 78% 30.09 in 10.0 mi SSW 10.4 mph - N/A   Partly Cloudy
7:55 AM 69.8 °F - 62.6 °F 78% 30.09 in 10.0 mi South 9.2 mph - N/A   Partly Cloudy
8:15 AM 69.8 °F - 62.6 °F 78% 30.10 in 10.0 mi South 10.4 mph - N/A   Partly Cloudy
8:35 AM 71.6 °F - 62.6 °F 73% 30.11 in 10.0 mi South 10.4 mph - N/A   Scattered Clouds
8:55 AM 71.6 °F - 62.6 °F 73% 30.11 in 10.0 mi South 11.5 mph - N/A   Scattered Clouds
9:15 AM 73.4 °F - 62.6 °F 69% 30.12 in 10.0 mi SSW 12.7 mph - N/A   Clear
9:35 AM 75.2 °F - 62.6 °F 65% 30.11 in 10.0 mi SSW 12.7 mph - N/A   Partly Cloudy
9:55 AM 75.2 °F - 60.8 °F 61% 30.11 in 10.0 mi South 15.0 mph - N/A   Clear
10:15 AM 75.2 °F - 60.8 °F 61% 30.11 in 10.0 mi SSW 16.1 mph - N/A   Partly Cloudy
10:35 AM 75.2 °F - 60.8 °F 61% 30.12 in 10.0 mi SSW 18.4 mph 23.0 mph N/A   Scattered Clouds
10:55 AM 75.2 °F - 60.8 °F 61% 30.12 in 10.0 mi SSW 21.9 mph 26.5 mph N/A   Scattered Clouds
11:15 AM 75.2 °F - 60.8 °F 61% 30.13 in 10.0 mi SSW 19.6 mph 25.3 mph N/A   Partly Cloudy
11:35 AM 75.2 °F - 60.8 °F 61% 30.12 in 10.0 mi SSW 18.4 mph - N/A   Clear
11:55 AM 78.8 °F - 60.8 °F 54% 30.12 in 10.0 mi SSW 20.7 mph 25.3 mph N/A   Partly Cloudy
12:15 PM 80.6 °F 81.5 °F 60.8 °F 51% 30.12 in 10.0 mi SSW 21.9 mph 27.6 mph N/A   Partly Cloudy
12:35 PM 80.6 °F 81.5 °F 60.8 °F 51% 30.10 in 10.0 mi SSW 20.7 mph 27.6 mph N/A   Clear
12:55 PM 82.4 °F 83.4 °F 62.6 °F 51% 30.11 in 10.0 mi SSW 24.2 mph 27.6 mph N/A   Clear
1:15 PM 80.6 °F 81.5 °F 60.8 °F 51% 30.10 in 10.0 mi South 24.2 mph 27.6 mph N/A   Partly Cloudy
1:35 PM 80.6 °F 81.5 °F 60.8 °F 51% 30.10 in 10.0 mi SSW 21.9 mph 27.6 mph N/A   Partly Cloudy
1:55 PM 82.4 °F 82.9 °F 60.8 °F 48% 30.09 in 10.0 mi South 21.9 mph - N/A   Clear
2:15 PM 86.0 °F 86.6 °F 62.6 °F 45% 30.08 in 10.0 mi SSW 24.2 mph 31.1 mph N/A   Clear
2:35 PM 87.8 °F 88.5 °F 62.6 °F 43% 30.07 in 10.0 mi South 25.3 mph 32.2 mph N/A   Clear
2:55 PM 87.8 °F 88.5 °F 62.6 °F 43% 30.07 in 10.0 mi SSW 25.3 mph 33.4 mph N/A   Clear
3:15 PM 87.8 °F 88.5 °F 62.6 °F 43% 30.07 in 10.0 mi SSW 21.9 mph 31.1 mph N/A   Clear
3:35 PM 87.8 °F 88.5 °F 62.6 °F 43% 30.07 in 10.0 mi SSW 23.0 mph 33.4 mph N/A   Clear
3:55 PM 87.8 °F 89.4 °F 64.4 °F 46% 30.05 in 10.0 mi South 27.6 mph - N/A   Clear
4:15 PM 87.8 °F 89.4 °F 64.4 °F 46% 30.03 in 10.0 mi South 29.9 mph 34.5 mph N/A   Clear
4:35 PM 84.2 °F 85.0 °F 62.6 °F 48% 30.04 in 10.0 mi South 24.2 mph 32.2 mph N/A   Clear
4:55 PM 82.4 °F 83.4 °F 62.6 °F 51% 30.02 in 10.0 mi SSW 21.9 mph 32.2 mph N/A   Clear
5:15 PM 82.4 °F 83.4 °F 62.6 °F 51% 30.01 in 10.0 mi SSW 20.7 mph - N/A   Clear
5:35 PM 82.4 °F 82.9 °F 60.8 °F 48% 30.02 in 10.0 mi South 20.7 mph 25.3 mph N/A   Clear
5:55 PM 82.4 °F 82.9 °F 60.8 °F 48% 30.02 in 10.0 mi SSW 19.6 mph 26.5 mph N/A   Clear
6:15 PM 80.6 °F 81.5 °F 60.8 °F 51% 30.01 in 10.0 mi South 20.7 mph 25.3 mph N/A   Clear
6:35 PM 80.6 °F 81.5 °F 60.8 °F 51% 30.01 in 10.0 mi South 21.9 mph 25.3 mph N/A   Clear
6:55 PM 80.6 °F 81.5 °F 60.8 °F 51% 30.00 in 10.0 mi South 20.7 mph 29.9 mph N/A   Partly Cloudy
7:15 PM 80.6 °F 81.8 °F 62.6 °F 54% 30.01 in 10.0 mi South 19.6 mph - N/A   Clear
7:35 PM 78.8 °F - 62.6 °F 57% 30.01 in 10.0 mi South 15.0 mph 19.6 mph N/A   Clear
7:55 PM 78.8 °F - 62.6 °F 57% 29.99 in 10.0 mi South 16.1 mph 23.0 mph N/A   Clear
8:15 PM 78.8 °F - 64.4 °F 61% 29.98 in 10.0 mi South 9.2 mph - N/A   Clear
8:35 PM 78.8 °F - 64.4 °F 61% 29.98 in 10.0 mi South 11.5 mph - N/A   Clear
8:55 PM 77.0 °F - 64.4 °F 65% 29.99 in 10.0 mi South 13.8 mph - N/A   Clear
9:15 PM 78.8 °F - 64.4 °F 61% 29.99 in 10.0 mi South 18.4 mph - N/A   Partly Cloudy
9:35 PM 77.0 °F - 66.2 °F 69% 30.02 in 10.0 mi SW 13.8 mph - N/A Thunderstorm Mostly Cloudy
9:55 PM 75.2 °F - 66.2 °F 73% 30.05 in 10.0 mi NW 10.4 mph - N/A Thunderstorm Mostly Cloudy
10:15 PM 73.4 °F - 64.4 °F 73% 30.08 in 7.0 mi West 13.8 mph 19.6 mph 0.19 in Thunderstorm Thunderstorm
10:35 PM 71.6 °F - 64.4 °F 78% 30.05 in 10.0 mi SW 5.8 mph - 0.22 in Thunderstorm Mostly Cloudy
10:55 PM 71.6 °F - 64.4 °F 78% 30.05 in 10.0 mi SW 8.1 mph - 0.22 in   Partly Cloudy
11:15 PM 71.6 °F - 64.4 °F 78% 30.05 in 10.0 mi WSW 6.9 mph - N/A   Clear
11:35 PM 71.6 °F - 64.4 °F 78% 30.06 in 10.0 mi WSW 9.2 mph - N/A   Partly Cloudy
11:55 PM 71.6 °F - 64.4 °F 78% 30.05 in 10.0 mi WSW 12.7 mph - N/A   Clear